Regional Weather Roundup
Issued by NWS

Home | Current Version | Previous Version | Graphics & Text | Print | Product List | Glossary Off
Versions: 1 2 3 4 5 6 7 8 9 10 11 12 13 14 15 16 17 18 19 20 21 22 23 24 25 26 27 28 29 30 31 32 33 34 35 36 37 38 39 40 41 42 43 44 45 46 47 48 49 50

000
ASUS43 KFSD 021102
RWRSD

WEATHER ROUNDUP FOR SOUTH DAKOTA
NATIONAL WEATHER SERVICE SIOUX FALLS SD
500 AM CST MON MAR 02 2015

NOTE: "FAIR" INDICATES FEW OR NO CLOUDS BELOW 12,000 FEET WITH NO
SIGNIFICANT WEATHER AND/OR OBSTRUCTIONS TO VISIBILITY.


SDZ001>005-009-010-012>017-021200-
NORTHWEST AND NORTH CENTRAL SOUTH DAKOTA

CITY           SKY/WX    TMP DP  RH WIND       PRES   REMARKS
BUFFALO          N/A     12   5  73 SE17      29.96F WCI  -5
FAITH            N/A     11   5  77 SE15      30.15F WCI  -5
MOBRIDGE       PTCLDY     9   6  88 SE9       30.26F WCI  -4
$$

SDZ012>016-024>037-041>051-057-063-072>074-021200-
SOUTHWEST AND SOUTH CENTRAL SOUTH DAKOTA

CITY           SKY/WX    TMP DP  RH WIND       PRES   REMARKS
RAPID CTY ARPT MOCLDY    15   8  73 S17       30.08F WCI  -1
PIERRE         PTCLDY    12   9  87 SE8       30.30F WCI   0
CUSTER         PTCLDY    15   6  67 SW7       29.97F WCI   5
ELLSWORTH AFB  PTCLDY    15   8  72 S16       30.06F WCI   0
PHILIP         PTCLDY     4  -1  80 E6        30.21F WCI  -7
PINE RIDGE     CLEAR     23   9  55 S7        30.11F WCI  15
WINNER         FAIR      18   5  57 SE13      30.30F WCI   5
$$

SDZ004>011-016>023-039-040-021200-
NORTHEAST SOUTH DAKOTA

CITY           SKY/WX    TMP DP  RH WIND       PRES   REMARKS
ABERDEEN       CLOUDY     1  -3  83 S6        30.39S FOG     WCI -10
WATERTOWN      MOCLDY    -2  -7  79 S5        30.38S WCI -12
SISSETON         N/A      6   0  76 SW8       30.39S WCI  -7
$$

SDZ017-020-022-023-036>040-048>070-021200-
SOUTHEAST SOUTH DAKOTA

CITY           SKY/WX    TMP DP  RH WIND       PRES   REMARKS
SIOUX FALLS    PTCLDY     7   3  84 CALM      30.44S
HURON          PTCLDY     4   1  88 S6        30.41F WCI  -7
MITCHELL       PTCLDY     5   2  87 SE6       30.42F WCI  -6
YANKTON        CLEAR     12   9  85 S3        30.46S
$$

ABBREVIATIONS USED IN REMARKS
   TC - TEMPERATURE IN CELSIUS
  WCI - WIND CHILL INDEX
   HX - HEAT INDEX
  VSB - VISIBILITY



USA.gov is the U.S. government's official web portal to all federal, state and local government web resources and services.